www.pogodaiklimat.ru

Погода и климат >> Архив погоды >> Таиланд >> Лаем-Чабанг


ПОГОДА в Лаем-Чабанге

  • Прогноз погоды в Лаем-Чабанге
  • Монитор погоды в Лаем-Чабанге

АРХИВ ПОГОДЫ в Лаем-Чабанге

Время (UTC), дата Ветер
(напр.,м/с)
 
Видим.   Явления Облачность Т
(С)
Тd
(С)
f
(%)
Тe
(С)
Тes
(С)
Комфортность P
(гПа)
Po
(гПа)
Тmin
(С)
Tmax
(С)
R
(мм)
R24
(мм)
S
(см)
12 12.06 ЮЗ 12 12 км 6/3 600 м
[Cu hum Ac lent Cs]
+29.5 +25.2 78 +43 +43 опасность
перегрева
1006.7 997.5 +31.8
00 13.06 ЮЗ 12 10 км 4/1 600 м
[Cu hum Cs]
+29.0 +24.7 78 +41 +41 опасность
перегрева
1008.3 999.0 +28.0
03 13.06 ЮЗ 12 12 км 6/3 600 м
[Cu med, cong Cs]
+30.5 +25.6 75 +45 +45 опасность
перегрева
1009.7 1000.4
06 13.06 ЮЗ 12 14 км 6/3 600 м
[Cu med, cong Cs]
+31.8 +25.3 69 +46 +46 опасность
перегрева
1008.4 999.2
09 13.06 ЮЗ 10 14 км 6/3 600 м
[Cu med, cong Cs]
+31.2 +25.3 71 +45 +45 опасность
перегрева
1006.3 997.2
12 13.06 ЮЗ 12 12 км 9/3 600 м
[Cu Sc Ac As Cs]
+29.5 +25.2 78 +43 +43 опасность
перегрева
1007.1 997.8 +32.2
00 14.06 ЮЗ 10 10 км 5/1 600 м
[Cu med, cong Ac lent Cs]
+29.5 +25.2 78 +43 +43 опасность
перегрева
1008.5 999.2 +28.8
03 14.06 ЮЗ 10 12 км 5/1 600 м
[Cu med, cong Ac lent Cs]
+31.0 +26.1 75 +46 +47 опасность
перегрева
1009.9 1000.7
06 14.06 ЮЗ 10 10 км 6/3 600 м
[Cu hum Ac trans Cs]
+32.4 +24.7 64 +45 +46 опасность
перегрева
1007.8 998.6
09 14.06 Ю 6 10 км 6/3 600 м
[Cu hum Cs]
+32.1 +25.5 68 +47 +49 опасность
перегрева
1005.7 996.6
12 14.06 Ю 9 10 км 10/4 600 м
[Cu Sc Ac trans Cs]
+30.1 +25.1 75 +44 +44 опасность
перегрева
1007.0 997.8 +33.2
00 15.06 З 8 8000 м 5/1 600 м
[Cu hum Ac lent Cs]
+29.0 +24.7 78 +41 +42 опасность
перегрева
1008.8 999.6 +28.4
03 15.06 ЮЗ 8 9000 м дымка 3/1 600 м
[Cu hum Cs]
+32.1 +25.6 69 +47 +49 опасность
перегрева
1011.2 1002.0
06 15.06 ЮЗ 8 10 км 4/3 600 м
[Cu hum Ac lent Cs]
+32.7 +25.7 67 +48 +50 опасность
перегрева
1008.5 999.4
09 15.06 ЮЗ 9 10 км 8/3 600 м
[Cu med, cong Cs]
+30.8 +25.3 73 +45 +45 опасность
перегрева
1006.1 996.9
12 15.06 Ю 10 10 км 6/3 600 м
[Cu hum Ac lent Cs]
+30.0 +25.8 78 +45 +45 опасность
перегрева
1006.5 997.3 +33.2
00 16.06 З 5 10 км 10/1 600 м
[Cu hum Ac und Cs]
+29.2 +24.6 76 +41 +42 опасность
перегрева
1008.3 999.0 +28.0
03 16.06 ЮЗ 7 10 км 4/1 600 м
[Cu hum Ac lent Cs]
+32.5 +25.5 67 +47 +51 опасность
перегрева
1009.0 999.9
06 16.06 ЮЗ 10 10 км 3/3 600 м
[Cu hum Ac lent Cs]
+32.5 +25.2 65 +46 +47 опасность
перегрева
1007.8 998.6
09 16.06 ЮЗ 10 10 км 8/3 600 м
[Cu med, cong Ac und Cs]
+31.4 +25.2 70 +45 +46 опасность
перегрева
1005.8 996.7
12 16.06 ЮЗ 7 8000 м в посл. час дождь 10/4 600 м
[Cu Sc Ac As Cs]
+27.2 +25.9 93 +41 +41 опасность
перегрева
1007.1 997.8 +33.2 21
00 17.06 ЮЗ 11 9000 м дымка 10/4 600 м
[Cu Sc Ac As Cs]
+28.4 +25.0 82 +41 +41 опасность
перегрева
1008.3 999.0 +26.2
03 17.06 З 10 9000 м дымка {дождь} 10/6 600 м
[Cu Sc Ac As Cs]
+29.4 +25.0 77 +42 +42 опасность
перегрева
1009.9 1000.7 0.5
06 17.06 З 13 10 км {дождь} 10/6 600 м
[Cu Sc Ac As Cs]
+29.4 +24.5 75 +42 +42 опасность
перегрева
1008.0 998.8 0.5
09 17.06 З 11 10 км 9/5 600 м
[Cu Sc Ac As Cs]
+29.3 +24.4 75 +41 +41 опасность
перегрева
1007.3 998.0
12 17.06 ЮЗ 9 10 км 10/5 600 м
[Sc Ac As Cs]
+28.5 +23.9 76 +39 +39 очень
душно
1007.3 998.0 +31.2
00 18.06 ЮЗ 11 8000 м дымка 9/3 600 м
[Cu med, cong Ac und Cs]
+28.9 +25.5 82 +43 +43 опасность
перегрева
1007.6 998.3 +28.0
03 18.06 З 10 9000 м дымка 6/1 600 м
[Cu hum Ac lent Cs]
+30.1 +24.5 72 +42 +43 опасность
перегрева
1009.0 999.8
06 18.06 ЮЗ 9 10 км 9/4 600 м
[Cu hum Ac und Cs]
+31.5 +24.4 66 +44 +45 опасность
перегрева
1008.1 999.0
09 18.06 ЮЗ 10 10 км 10/5 600 м
[Cu Sc Ac As Cs]
+29.4 +24.5 75 +42 +42 опасность
перегрева
1006.7 997.4
12 18.06 ЮЗ 11 8000 м дымка 10/5 600 м
[Cu Sc Ac As Cs]
+29.0 +25.2 80 +42 +42 опасность
перегрева
1007.2 997.9 +32.6
00 19.06 ЮЗ 11 8000 м дымка 10/1 600 м
[Cu hum Ac As Cs]
+28.7 +24.8 79 +41 +41 опасность
перегрева
1008.3 999.1 +26.7
03 19.06 ЮЗ 8 8000 м дымка 10/1 600 м
[Cu hum Ac As Cs]
+30.0 +24.3 72 +42 +43 опасность
перегрева
1010.1 1000.9
06 19.06 ЮЗ 8 9000 м дымка 10/3 600 м
[Cu hum Ac und Cs]
+31.0 +24.7 69 +44 +45 опасность
перегрева
1008.7 999.5
09 19.06 ЮЗ 8 10 км 8/3 600 м
[Cu hum Ac lent Cs]
+31.5 +25.7 71 +46 +47 опасность
перегрева
1006.8 997.6

 

Местоположение метеостанции Лаем-Чабанг (Таиланд): широта 15.08 долгота 100.88 высота над уровнем моря 82 м.

В архиве по умолчанию представлена погода в Лаем-Чабанге за последнюю неделю. Архивные данные за месяц целиком и за предыдущие месяцы, начиная с января 2011 года, Вы можете получить, выбрав интересующий диапазон дат из раскрывающегося списка и нажав кнопку "Ввод!".


*Определитесь, кто Вы:
робот инопланетянин человек

Внимание! Время в таблицах - всемирное. Для получения местного времени необходимо прибавить поправку, которая равна 7 ч.

Смотрите также архив погоды в соседних городах и на ближайших метеорологических станциях:

Погода в Буа Чум (Таиланд) (39 км)
Погода в Лопбури (Таиланд) (43 км)
Погода в Такфа Агромете (Таиланд) (51 км)
Погода в Сарабури (Таиланд) (62 км)
Погода в Аюттхая (Таиланд) (65 км)
Погода в Вичан Бури (Таиланд) (66 км)
Погода в Пакчонг Агромете (Таиланд) (69 км)
Погода в Чайнат Агромете (Таиланд) (76 км)
Погода в Утай Тани (Таиланд) (96 км)
Погода в Суфанбури (Таиланд) (105 км)

Пояснения к столбцам:

Ветер - указаны скорость ветра в м/с - средняя за 10 мин, порывы в срок и между сроками (в фигурных скобках) и направление, откуда дует ветер: С - северный, СВ - северо-восточный, В - восточный, ЮВ - юго-восточный, Ю - южный, ЮЗ - юго-западный, З - западный, СЗ - северо-западный.
Видимость - горизонтальная дальность видимости в метрах или километрах. При видимости от 1 до 10 км при отсутствии осадков обычно наблюдается дымка, при ухудшении видимости до 1 км и менее - туман. В сухую погоду видимость может ухудшаться дымом, пылью или мглою.
Явления - указаны атмосферные явления, наблюдавшиеся в срок или в последний час перед сроком; фигурными скобками обозначены явления, наблюдавшиеся между сроками (за 1-3 часа до срока); квадратными скобками обозначены град или гололедные отложения с указанием их диаметра в мм.
Облачность - указаны через наклонную черту общая и нижняя облачность в баллах и высота нижней границы облаков в метрах; квадратными скобками обозначены формы облаков: Ci - перистые, Cs - перисто-слоистые, Cc - перисто-кучевые, Ac - высококучевые, As - высокослоистые, Sc - слоисто-кучевые, Ns - слоисто-дождевые, Cu - кучевые, Cb - кучево-дождевые. Подробнее классификацию облаков см. в Атласе облаков (PDF).
T - Температура воздуха - температура, измеренная на высоте 2 м над землей.
Td - Температура точки росы - температура, при понижении до которой содержащийся в воздухе водяной пар достигнет насыщения.
f - Относительная влажность воздуха - влажноcть воздуха, измеренная на высоте 2 м над землей.
Te - Эффективная температура - температура, которую ощущает одетый по сезону человек в тени. Характеристика душности погоды. При расчете учитывается влияние влажности воздуха и скорости ветра на теплоощущения человека.
Tes - Эффективная температура на солнце - температура, которую ощущает человек, с поправкой на солнечный нагрев. Характеристика знойности погоды. Зависит от высоты солнца над горизонтом, облачности и скорости ветра. Ночью, в пасмурную погоду, а также при ветре 12 м/с и более поправка равна нулю.
P - Атмосферное давление - приведенное к уровню моря атмосферное давление.
Po - Атмосферное давление - измеренное на уровне метеостанции атмосферное давление.
Tmin - Минимальная температура - минимум температуры воздуха на высоте 2 м над землей.
Tmax - Максимальная температура - максимум температуры воздуха на высоте 2 м над землей.
R - Количество осадков - Количество выпавших осадков за период времени, мм. При наведении курсора мыши на число - период времени, за который выпало указанное количество осадков.
R24 - Количество осадков - Количество выпавших осадков за 24 часа, мм.
S - Снежный покров - Высота снежного покрова, см. При наведении курсора мыши на число - состояние снежного покрова и степень покрытия местности в баллах.